www.pogodaiklimat.ru

Погода и климат >> Архив погоды >> Сербия >> Банатски-Карловац


ПОГОДА в Банатски-Карловаце

  • Прогноз погоды в Банатски-Карловаце
  • Монитор погоды в Банатски-Карловаце

АРХИВ ПОГОДЫ в Банатски-Карловаце

Время (UTC), дата Ветер
(напр.,м/с)
 
Видим.   Явления Облачность Т
(С)
Тd
(С)
f
(%)
Тe
(С)
Тes
(С)
Комфортность P
(гПа)
Po
(гПа)
Тmin
(С)
Tmax
(С)
R
(мм)
R24
(мм)
S
(см)
01 10.07 СЗ 1 15 км 8/0
[Ac trans]
+17.2 +16.2 94 +18 +18 1013.4 1002.7
02 10.07 СЗ 1 15 км 9/0
[Ac trans]
+16.9 +16.1 95 +18 +18 1013.4 1002.7
03 10.07 З 1 15 км 9/0
[Ac As]
+16.3 +15.8 97 +17 +17 1013.5 1002.8
04 10.07 З 1 20 км 9/0
[Ac As]
+16.1 +15.7 97 +17 +17 1013.3 1002.6
05 10.07 СЗ 2 20 км 10/8 1000 м
[Sc Ac trans]
+16.1 +16.0 99 +16 +16 1013.6 1002.9
06 10.07 З 2 20 км слаб. дождь 10/10 1000 м
[Sc]
+16.3 +14.7 90 +16 +16 1014.4 1003.7 +15.8 0.0
07 10.07 З 2 20 км в посл. час дождь 10/10 1000 м
[Sc]
+16.9 +15.1 89 +17 +17 1014.3 1003.6
08 10.07 З 2 17 км 10/10
[Sc]
+18.0 +13.0 73 +19 +19 1014.2 1003.6
09 10.07 З 2 20 км 10/10 1000 м
[Sc]
+19.0 +13.2 69 +21 +21 комфорт 1014.5 1003.9
10 10.07 З 3 20 км 10/10 1000 м
[Sc]
+19.5 +12.9 66 +21 +21 комфорт 1014.4 1004.0
11 10.07 З 4 20 км 10/10 1000 м
[Sc]
+19.2 +13.1 68 +20 +20 1014.2 1003.6
12 10.07 З 4 20 км {дождь} 10/10 1000 м
[Sc]
+18.5 +13.6 73 +19 +19 1014.4 1003.8 0.2
13 10.07 З 4 20 км 10/10 1000 м
[Sc]
+18.5 +13.6 73 +19 +19 1014.1 1003.6
14 10.07 З 4 20 км 8/4 1000 м
[Sc Ac trans]
+20.2 +13.2 64 +22 +25 комфорт 1013.7 1003.1
15 10.07 З 4 20 км 3/1 1000 м
[Cu hum Ac trans]
+21.0 +12.6 59 +24 +27 комфорт 1013.6 1003.0
16 10.07 З 3 20 км 3/1 1000 м
[Cu hum Ac trans]
+20.2 +11.0 55 +22 +24 комфорт 1013.6 1003.0
18 10.07 З 3 20 км 1/0
[Ac trans]
+18.2 +14.5 79 +19 +19 1013.2 1002.6 +22.0 0.2
19 10.07 З 3 20 км ясно +16.5 +13.2 81 +16 +16 1013.6 1002.9
20 10.07 ЮЗ 4 20 км ясно +16.0 +13.5 85 +15 +15 1014.0 1003.3
21 10.07 ЮЗ 4 20 км ясно +15.5 +13.0 85 +15 +15 1014.2 1003.4
22 10.07 З 4 20 км ясно +15.4 +13.0 86 +14 +14 1014.1 1003.3
23 10.07 ЮЗ 4 20 км ясно +14.7 +12.6 87 +13 +13 1013.8 1003.0
00 11.07 З 3 20 км ясно +14.0 +12.4 90 +13 +13 1013.6 1002.8
01 11.07 З 2 20 км ясно +13.8 +12.8 94 +13 +13 1015.4 1002.6
02 11.07 В 1 20 км ясно +11.5 +11.1 97 +11 +11 1013.5 1002.6
03 11.07 ЮЗ 1 15 км ясно +10.5 +10.1 97 +10 +10 1013.8 1002.8
04 11.07 Ю 2 10 км ясно +11.5 +11.1 97 +10 +11 1014.0 1003.0
05 11.07 ЮЗ 2 10 км ясно +14.0 +11.4 84 +13 +16 1014.0 1003.2
06 11.07 З 2 15 км ясно +16.1 +10.7 70 +16 +22 1014.1 1003.4 +10.5
07 11.07 ЮЗ 2 15 км ясно +18.0 +12.5 70 +19 +28 1014.1 1003.4
08 11.07 З 2 15 км ясно +19.4 +12.4 64 +21 +35 комфорт 1014.2 1003.6
09 11.07 З 3 20 км ясно +21.1 +13.5 62 +24 +37 комфорт 1014.0 1003.5
10 11.07 З 3 20 км 1/1 1000 м
[Cu hum]
+21.2 +12.6 58 +23 +37 комфорт 1013.7 1003.2
11 11.07 СЗ 4 20 км 4/4 1000 м
[Cu med, cong]
+23.6 +13.9 54 +26 +33 жарко 1013.1 1002.7
12 11.07 З 3 20 км 6/6 1000 м
[Sc]
+23.7 +12.3 49 +26 +31 жарко 1012.8 1002.4
13 11.07 З 3 20 км 5/5 1000 м
[Sc]
+24.2 +12.1 47 +26 +32 жарко 1012.4 1002.0
14 11.07 СЗ 3 20 км 5/5 1000 м
[Sc]
+22.9 +14.3 58 +26 +31 жарко 1012.2 1001.7
15 11.07 З 3 20 км 3/3 1000 м
[Cu med, cong]
+24.6 +11.8 45 +26 +30 жарко 1011.9 1001.5
16 11.07 З 3 20 км 3/3 1000 м
[Cu med, cong]
+24.0 +12.6 49 +26 +28 жарко 1001.8 1001.4
17 11.07 З 3 20 км 4/4 1000 м
[Sc]
+22.8 +13.6 56 +26 +26 жарко 1012.0 1001.5
18 11.07 З 3 20 км 3/3 1000 м
[Sc]
+20.8 +11.8 56 +23 +23 комфорт 1012.0 1001.5 +25.0
19 11.07 З 3 20 км 1/0
[Ac trans]
+19.4 +12.2 63 +21 +21 комфорт 1012.5 1001.9
20 11.07 З 3 20 км ясно +18.0 +11.9 68 +18 +18 1012.6 1002.0
21 11.07 З 2 20 км ясно +16.0 +12.1 78 +16 +16 1013.1 1002.4
22 11.07 ЮЗ 2 20 км 1/0
[Ac trans]
+14.7 +11.6 82 +14 +14 1013.4 1002.6
23 11.07 ЮЗ 2 20 км ясно +13.6 +11.1 85 +13 +13 1013.7 1002.9
00 12.07 З 1 20 км ясно +12.3 +10.3 88 +12 +12 1013.4 1002.5
01 12.07 З 1 20 км ясно +11.5 +10.4 93 +11 +11 1013.5 1002.6
02 12.07 СЗ 1 20 км ясно +11.8 +11.2 96 +12 +12 1013.6 1002.7
03 12.07 З 1 20 км ясно +11.0 +10.6 97 +11 +11 1013.9 1003.0
04 12.07 штиль 0 20 км ясно +11.2 +10.8 97 +10 +11 1014.3 1003.4
05 12.07 СЗ 1 20 км ясно +14.8 +12.0 83 +15 +18 1014.5 1003.7
06 12.07 С 1 20 км 1/0
[Ac trans]
+17.1 +13.6 80 +18 +24 1014.4 1003.7 +10.2
07 12.07 СВ 1 20 км 1/0
[Ci fib]
+19.9 +12.2 61 +23 +33 комфорт 1014.3 1003.7
08 12.07 В 1 20 км 3/0
[Ac trans Ci fib]
+21.4 +10.5 50 +23 +37 комфорт 1014.0 1003.6
09 12.07 Ю 1 20 км 6/0
[Ac trans Ci sp]
+23.2 +10.6 45 +25 +40 комфорт 1014.2 1003.7
10 12.07 ЮВ 1 20 км 8/1 1000 м
[Cu hum Ac As]
+23.0 +10.1 44 +25 +34 комфорт 1014.0 1003.5
11 12.07 С 2 20 км 6/3 1000 м
[Cu med, cong Ac trans]
+23.9 +10.2 42 +25 +35 комфорт 1013.6 1003.1
12 12.07 З 1 20 км 8/3 1000 м
[Cu med, cong Ac trans]
+23.3 +10.5 44 +25 +33 комфорт 1013.3 1002.8
13 12.07 З 1 20 км 9/4 1000 м
[Cu med, cong Ac trans]
+23.3 +10.5 44 +25 +30 комфорт 1013.1 1002.6
14 12.07 ЮЗ 2 20 км 9/9 1000 м
[Cu Sc]
+23.7 +12.6 50 +26 +27 жарко 1012.9 1002.5
15 12.07 З 1 20 км 9/9 1000 м
[Cu Sc]
+23.5 +13.0 52 +26 +26 жарко 1012.5 1002.1
16 12.07 З 3 20 км 8/8 1000 м
[Cu Sc]
+20.4 +13.4 64 +23 +23 комфорт 1013.0 1002.4
17 12.07 З 1 20 км 9/9 1000 м
[Sc]
+20.5 +14.8 70 +24 +24 комфорт 1012.8 1002.2
18 12.07 С 1 20 км 10/10 1000 м
[Sc]
+19.8 +16.7 82 +23 +23 комфорт 1012.9 1002.3 +24.5
19 12.07 штиль 0 20 км 10/10 1000 м
[Sc]
+18.0 +15.9 88 +18 +18 1013.0 1002.4
20 12.07 Ю 1 20 км 10/10 1000 м
[Sc]
+17.6 +15.0 85 +19 +19 1013.0 1002.4
21 12.07 Ю 2 20 км 10/10
[Sc]
+17.3 +16.3 94 +18 +18 1012.9 1002.2
22 12.07 Ю 2 20 км 10/10 1000 м
[Sc]
+16.8 +16.0 95 +17 +17 1012.7 1002.0
23 12.07 Ю 2 20 км 8/8 1000 м
[Sc]
+15.7 +15.0 96 +16 +16 1012.7 1002.0
00 13.07 штиль 0 20 км 4/4 1000 м
[Sc]
+14.5 +13.8 96 +14 +14 1012.7 1001.9
01 13.07 Ю 2 20 км ясно +14.0 +13.3 96 +13 +13 1012.3 1001.5
02 13.07 Ю 1 20 км ясно +13.4 +12.9 97 +13 +13 1011.9 1001.1
03 13.07 ЮВ 2 20 км 3/0
[Ac trans]
+13.3 +12.8 97 +12 +12 1011.8 1001.0
04 13.07 ЮВ 2 20 км 9/0
[Ac trans]
+14.0 +13.5 97 +13 +14 1011.7 1000.9
05 13.07 ЮВ 2 20 км 9/0
[Ac As]
+15.5 +14.8 96 +15 +16 1011.5 1000.8
06 13.07 ЮВ 1 20 км 10/0
[Ac As]
+17.4 +15.0 86 +18 +20 1011.9 1001.2 +13.2
07 13.07 ЮВ 2 20 км 9/0
[Ac As]
+19.7 +14.4 71 +22 +26 комфорт 1011.8 1001.2
08 13.07 ЮВ 2 20 км 9/0
[Ac As]
+21.8 +15.9 69 +25 +30 комфорт 1011.2 1000.7
09 13.07 ЮВ 2 20 км 9/9 1000 м
[Sc]
+23.0 +15.5 63 +27 +29 душно 1011.4 1000.9
10 13.07 В 1 20 км 9/9 1000 м
[Sc]
+24.4 +14.5 54 +27 +29 жарко 1011.1 1000.7
11 13.07 Ю 1 20 км 9/9 1000 м
[Sc]
+25.9 +15.0 51 +29 +31 душно 1010.6 1000.3
12 13.07 ЮВ 2 20 км 9/9 1000 м
[Sc]
+25.2 +14.3 51 +28 +29 жарко 1010.3 999.9
13 13.07 ЮВ 2 20 км 9/0
[Ac As]
+24.8 +12.2 45 +26 +32 жарко 1009.5 999.1
15 13.07 З 2 20 км 10/0
[Ac As]
+24.2 +13.1 50 +26 +28 жарко 1009.3 998.9
16 13.07 З 1 20 км 10/10 1000 м
[Sc]
+23.5 +13.5 53 +26 +26 жарко 1009.3 998.9
17 13.07 С 2 20 км 10/10 1000 м
[Sc]
+22.0 +14.2 61 +25 +25 комфорт 1009.1 998.7
18 13.07 З 2 10 км слаб. дождь 10/10 1000 м
[Sc]
+19.6 +17.0 85 +22 +22 комфорт 1009.5 999.0 +26.2 0.0
19 13.07 З 1 10 км {дождь} 10/10 1000 м
[Sc]
+19.0 +17.3 90 +22 +22 комфорт 1010.1 999.5
20 13.07 З 1 20 км 10/10 1000 м
[Sc]
+18.2 +16.6 90 +20 +20 1010.6 1000.0
21 13.07 З 3 10 км 9/9 1000 м
[Sc]
+17.8 +16.5 92 +18 +18 1010.8 1000.2
22 13.07 З 2 10 км 8/8 1000 м
[Sc]
+16.7 +15.7 94 +17 +17 1010.9 1000.2
23 13.07 З 2 10 км 8/0
[Ac As]
+16.0 +15.2 95 +16 +16 1010.7 1000.0
00 14.07 З 3 20 км 9/0
[Ac As]
+16.1 +15.3 95 +16 +16 1010.5 999.8
01 14.07 З 4 20 км 9/0
[Ac As]
+15.7 +15.0 96 +15 +15 1010.1 999.4
02 14.07 З 2 20 км 9/0
[Ac As]
+15.3 +14.6 96 +15 +15 1009.9 999.2
03 14.07 З 3 20 км 10/0
[Ac As]
+15.3 +14.6 96 +15 +15 1009.9 999.2
04 14.07 З 3 20 км 9/0
[Ac As]
+15.3 +14.6 96 +15 +15 1009.9 999.2
05 14.07 З 2 10 км 10/0
[Ac As]
+16.1 +15.1 94 +16 +17 1009.9 999.2
06 14.07 З 2 10 км 10/10 1000 м
[Sc]
+16.8 +14.8 88 +17 +17 1010.0 999.3 +14.9
07 14.07 З 2 10 км 10/10 1000 м
[Sc]
+17.5 +15.1 86 +18 +18 1009.8 999.3
08 14.07 З 1 15 км 10/10 1000 м
[Sc]
+18.0 +15.4 85 +19 +19 1010.0 999.5
09 14.07 ЮЗ 1 20 км 9/9 1000 м
[Cu Sc]
+20.1 +16.0 77 +24 +26 комфорт 1010.2 999.6
10 14.07 З 2 20 км 8/8 1000 м
[Cu Sc]
+20.6 +16.1 75 +24 +28 комфорт 1009.8 999.3
11 14.07 С 3 20 км слаб. дождь 10/10 1000 м
[Sc]
+19.0 +17.3 90 +21 +21 комфорт 1009.7 999.2
12 14.07 З 2 20 км в посл. час дождь 10/10 1000 м
[Sc]
+19.5 +17.2 87 +22 +22 комфорт 1009.4 998.9 0.6
13 14.07 В 1 15 км дождь 10/0
[As op]
+16.5 +15.7 95 +17 +21 1010.2 999.5
14 14.07 ЮВ 2 20 км в посл. час дождь 8/8 1000 м
[Sc]
+18.5 +16.0 85 +20 +22 1009.7 998.9
15 14.07 З 1 20 км 9/9 1000 м
[Sc]
+19.5 +16.5 83 +23 +23 комфорт 1009.6 999.1
16 14.07 штиль 0 15 км в посл. час дождь 10/10 1000 м
[Sc]
+18.6 +17.6 94 +20 +20 1009.3 998.8
17 14.07 З 2 20 км 9/9 1000 м
[Sc]
+18.8 +17.5 92 +21 +21 комфорт 1009.4 998.9
18 14.07 ЮЗ 2 20 км {дождь} 8/8 1000 м
[Sc]
+18.5 +17.7 95 +20 +20 1010.0 999.2 +22.0 38
19 14.07 З 1 20 км 6/6 1000 м
[Sc]
+17.5 +16.7 95 +19 +19 1010.4 999.6
20 14.07 ЮЗ 3 20 км 8/8 1000 м
[Sc]
+17.0 +16.3 96 +17 +17 1010.8 1000.0
21 14.07 З 2 20 км ясно +16.2 +15.5 96 +16 +16 1010.8 1000.0
22 14.07 З 2 20 км ясно +15.5 +14.8 96 +15 +15 1010.8 1000.0
23 14.07 З 1 20 км ясно +15.5 +14.8 96 +16 +16 1010.6 999.8
00 15.07 З 1 20 км ясно +15.4 +14.9 97 +16 +16 1010.6 999.8
01 15.07 З 1 20 км ясно +15.2 +14.8 97 +16 +16 1010.5 999.7
02 15.07 З 1 20 км ясно +14.5 +14.1 97 +15 +15 1010.6 999.8
03 15.07 З 2 20 км ясно +14.5 +14.1 97 +14 +14 1010.6 999.8
04 15.07 З 1 15 км ясно +14.6 +13.9 96 +15 +16 1010.7 999.9
05 15.07 СЗ 2 15 км ясно +16.2 +14.2 88 +16 +19 1011.1 1000.3
06 15.07 С 2 15 км ясно +17.2 +14.6 85 +18 +23 1011.1 1000.5 +14.0
07 15.07 С 2 15 км 3/3 1000 м
[Sc]
+18.8 +15.8 83 +20 +27 1011.5 1000.9
08 15.07 СЗ 2 15 км 1/1 1000 м
[Cu hum]
+20.2 +14.4 69 +23 +35 комфорт 1011.5 1000.9
09 15.07 СЗ 2 20 км 4/4 1000 м
[Cu hum]
+22.0 +14.9 64 +25 +35 комфорт 1011.4 1000.9
10 15.07 З 2 20 км 4/4 1000 м
[Cu hum]
+22.7 +15.0 62 +27 +38 душно 1011.4 1000.9
11 15.07 СЗ 2 20 км 3/3 1000 м
[Cu hum]
+24.0 +13.8 53 +26 +39 жарко 1011.3 1000.9
12 15.07 СЗ 3 20 км 3/3 1000 м
[Cu hum]
+24.0 +13.6 52 +26 +36 жарко 1011.1 1000.7
13 15.07 СЗ 3 20 км 4/4 1000 м
[Cu hum]
+24.8 +13.0 48 +27 +34 жарко 1010.9 1000.5
14 15.07 СЗ 3 20 км 5/5 1000 м
[Cu hum]
+25.0 +12.7 46 +27 +31 жарко 1010.9 1000.5
15 15.07 С 4 20 км 5/5 1000 м
[Cu hum]
+25.2 +12.6 45 +27 +29 жарко 1010.7 1000.3
16 15.07 СЗ 3 20 км 3/3 1000 м
[Cu hum]
+24.7 +12.1 45 +26 +28 жарко 1010.7 1000.3
17 15.07 С 2 20 км ясно +23.5 +13.0 52 +26 +26 жарко 1010.7 1000.3
18 15.07 З 1 20 км ясно +21.0 +15.3 70 +25 +25 комфорт 1010.9 1000.4 +25.6
19 15.07 З 1 20 км ясно +17.7 +13.9 78 +19 +19 1011.6 1001.0
20 15.07 З 2 20 км ясно +16.8 +14.2 85 +17 +17 1012.1 1001.4
21 15.07 З 2 20 км 4/0
[Ci fib]
+15.8 +14.1 90 +16 +16 1012.4 1001.7
22 15.07 З 1 20 км 4/0
[Ci fib]
+15.6 +14.3 92 +16 +16 1012.6 1001.9
23 15.07 З 1 20 км 8/0
[Ac trans Ci fib]
+14.7 +13.5 93 +15 +15 1012.7 1001.9
00 16.07 З 1 20 км 8/0
[Ac trans Ci fib]
+14.2 +13.2 94 +14 +14 1012.5 1001.7
01 16.07 ЮЗ 1 20 км 8/0
[Ac trans Ci fib]
+11.6 +11.0 96 +11 +11 1012.6 1001.7
02 16.07 СЗ 1 20 км 8/0
[Ac trans Ci fib]
+11.1 +10.7 97 +11 +11 1012.6 1001.7
03 16.07 З 1 20 км 8/0
[Ac trans Ci fib]
+11.8 +10.9 94 +12 +12 1012.6 1001.7
04 16.07 З 1 20 км 8/0
[Ac trans Ci fib]
+13.5 +12.1 91 +14 +14 1012.5 1001.7
05 16.07 З 1 20 км 8/0
[Ac trans Ci fib]
+15.7 +13.5 87 +16 +18 1012.7 1002.0
06 16.07 З 1 20 км 9/0
[Ac trans Ci fib]
+15.9 +11.4 75 +17 +21 1012.9 1002.2 +11.0
07 16.07 З 1 20 км 6/0
[Ac trans Ci fib]
+19.5 +13.4 68 +22 +30 комфорт 1012.6 1002.0
08 16.07 СЗ 2 20 км 1/0
[Ci fib]
+22.6 +17.7 74 +28 +41 душно 1012.5 1002.0
09 16.07 С 2 20 км 3/3 1000 м
[Cu med, cong]
+23.8 +12.8 50 +26 +37 жарко 1012.6 1002.2
10 16.07 В 1 20 км 5/5 1000 м
[Cu med, cong]
+25.0 +12.5 46 +27 +37 жарко 1012.4 1002.0
11 16.07 С 2 20 км 5/5 1000 м
[Cu med, cong]
+25.9 +12.3 43 +27 +37 жарко 1012.0 1001.6
12 16.07 С 3 20 км 5/5 1000 м
[Cu med, cong]
+26.6 +10.2 36 +27 +34 жарко 1011.4 1001.1
13 16.07 С 3 20 км 4/4 1000 м
[Cu med, cong]
+26.5 +10.1 36 +27 +34 жарко 1011.3 1000.9
14 16.07 С 3 20 км 3/3 1000 м
[Cu med, cong]
+26.8 +9.8 34 +27 +33 жарко 1011.0 1000.7
15 16.07 С 2 20 км 1/1 1000 м
[Cu med, cong]
+26.4 +8.5 32 +26 +32 жарко 1011.0 1000.6
16 16.07 С 2 20 км ясно +25.9 +9.7 36 +27 +29 жарко 1011.0 1000.6
17 16.07 С 1 20 км ясно +23.6 +11.9 48 +25 +26 комфорт 1011.2 1000.8
18 16.07 СЗ 1 20 км ясно +21.6 +14.8 65 +25 +25 комфорт 1011.6 1001.1 +27.3
19 16.07 З 1 20 км ясно +18.7 +14.8 78 +21 +21 комфорт 1012.1 1001.5
20 16.07 ЮЗ 1 20 км ясно +15.2 +13.2 88 +16 +16 1012.7 1001.9
21 16.07 ЮЗ 2 20 км ясно +14.3 +13.1 92 +14 +14 1012.8 1002.0
22 16.07 ЮЗ 1 20 км ясно +13.3 +12.2 93 +13 +13 1013.0 1002.2
23 16.07 ЮЗ 1 20 км ясно +12.7 +11.8 94 +13 +13 1013.0 1002.2
00 17.07 ЮЗ 2 20 км ясно +12.3 +11.6 95 +11 +11 1012.9 1002.0

 

Местоположение метеостанции Банатски-Карловац (Сербия): широта 45.05 долгота 21.03 высота над уровнем моря 91 м.

В архиве по умолчанию представлена погода в Банатски-Карловаце за последнюю неделю. Архивные данные за месяц целиком и за предыдущие месяцы, начиная с января 2011 года, Вы можете получить, выбрав интересующий диапазон дат из раскрывающегося списка и нажав кнопку "Ввод!".


*Определитесь, кто Вы:
робот инопланетянин человек

Внимание! Время в таблицах - всемирное. Для получения местного времени необходимо прибавить поправку, которая равна 1 ч.

Смотрите также архив погоды в соседних городах и на ближайших метеорологических станциях:

Погода в Вршаце (Сербия) (25 км)
Погода в Банлоке (Румыния) (38 км)
Погода в Велико-Градиште (Сербия) (51 км)
Погода в Оравице (Румыния) (51 км)
Погода в Белграде (Сербия) (52 км)
Погода в Зренянине (Сербия) (60 км)
Погода в Молдова-Вече (Румыния) (60 км)
Погода в Белград аэропорту (Сербия) (64 км)
Погода в Решице (Румыния) (75 км)
Погода в Смедеревска-Паланке (Сербия) (76 км)

Пояснения к столбцам:

Ветер - указаны скорость ветра в м/с - средняя за 10 мин, порывы в срок и между сроками (в фигурных скобках) и направление, откуда дует ветер: С - северный, СВ - северо-восточный, В - восточный, ЮВ - юго-восточный, Ю - южный, ЮЗ - юго-западный, З - западный, СЗ - северо-западный.
Видимость - горизонтальная дальность видимости в метрах или километрах. При видимости от 1 до 10 км при отсутствии осадков обычно наблюдается дымка, при ухудшении видимости до 1 км и менее - туман. В сухую погоду видимость может ухудшаться дымом, пылью или мглою.
Явления - указаны атмосферные явления, наблюдавшиеся в срок или в последний час перед сроком; фигурными скобками обозначены явления, наблюдавшиеся между сроками (за 1-3 часа до срока); квадратными скобками обозначены град или гололедные отложения с указанием их диаметра в мм.
Облачность - указаны через наклонную черту общая и нижняя облачность в баллах и высота нижней границы облаков в метрах; квадратными скобками обозначены формы облаков: Ci - перистые, Cs - перисто-слоистые, Cc - перисто-кучевые, Ac - высококучевые, As - высокослоистые, Sc - слоисто-кучевые, Ns - слоисто-дождевые, Cu - кучевые, Cb - кучево-дождевые. Подробнее классификацию облаков см. в Атласе облаков (PDF).
T - Температура воздуха - температура, измеренная на высоте 2 м над землей.
Td - Температура точки росы - температура, при понижении до которой содержащийся в воздухе водяной пар достигнет насыщения.
f - Относительная влажность воздуха - влажноcть воздуха, измеренная на высоте 2 м над землей.
Te - Эффективная температура - температура, которую ощущает одетый по сезону человек в тени. Характеристика душности погоды. При расчете учитывается влияние влажности воздуха и скорости ветра на теплоощущения человека.
Tes - Эффективная температура на солнце - температура, которую ощущает человек, с поправкой на солнечный нагрев. Характеристика знойности погоды. Зависит от высоты солнца над горизонтом, облачности и скорости ветра. Ночью, в пасмурную погоду, а также при ветре 12 м/с и более поправка равна нулю.
P - Атмосферное давление - приведенное к уровню моря атмосферное давление.
Po - Атмосферное давление - измеренное на уровне метеостанции атмосферное давление.
Tmin - Минимальная температура - минимум температуры воздуха на высоте 2 м над землей.
Tmax - Максимальная температура - максимум температуры воздуха на высоте 2 м над землей.
R - Количество осадков - Количество выпавших осадков за период времени, мм. При наведении курсора мыши на число - период времени, за который выпало указанное количество осадков.
R24 - Количество осадков - Количество выпавших осадков за 24 часа, мм.
S - Снежный покров - Высота снежного покрова, см. При наведении курсора мыши на число - состояние снежного покрова и степень покрытия местности в баллах.